<?xml version="1.0" encoding="UTF-8" standalone="no" ?>
<gpx xmlns="http://www.topografix.com/GPX/1/1" xmlns:xsi="http://www.w3.org/2001/XMLSchema-instance" xsi:schemaLocation="http://www.topografix.com/GPX/1/1 http://www.topografix.com/GPX/1/1/gpx.xsd" version="1.1" creator="VisuGPX - https://www.visugpx.com">
  <metadata>
    <name>La Bardenas Reales</name>
  </metadata>
  <trk>
    <name><![CDATA[3.2 Polygone de Tir]]></name>
    <extensions>
      <line xmlns="http://www.topografix.com/GPX/gpx_style/0/2">
        <color>ff00ff</color>
        <opacity>0.5</opacity>
        <width>12</width>
      </line>
    </extensions>
    <trkseg>
      <trkpt lat="42.17949" lon="-1.53316">
        <ele>315.7</ele>
        <time>2014-11-29T08:21:17Z</time>
        <extensions>
          <visugpx:TrkExtension xmlns:visugpx="https://www.visugpx.com/editgpx/">
            <visugpx:node>1</visugpx:node>
            </visugpx:TrkExtension>
        </extensions>
      </trkpt>
      <trkpt lat="42.17939" lon="-1.53305">
        <ele>316</ele>
        <time>2014-11-29T08:21:17Z</time>
      </trkpt>
      <trkpt lat="42.17967" lon="-1.5327">
        <ele>317.5</ele>
        <time>2014-11-29T08:21:17Z</time>
      </trkpt>
      <trkpt lat="42.17979" lon="-1.53252">
        <ele>318.9</ele>
        <time>2014-11-29T08:21:17Z</time>
      </trkpt>
      <trkpt lat="42.17995" lon="-1.53224">
        <ele>320.1</ele>
        <time>2014-11-29T08:21:17Z</time>
      </trkpt>
      <trkpt lat="42.18032" lon="-1.5315">
        <ele>322.2</ele>
        <time>2014-11-29T08:21:17Z</time>
      </trkpt>
      <trkpt lat="42.1806" lon="-1.53094">
        <ele>322.8</ele>
        <time>2014-11-29T08:21:17Z</time>
      </trkpt>
      <trkpt lat="42.1808" lon="-1.53058">
        <ele>322.4</ele>
        <time>2014-11-29T08:21:17Z</time>
      </trkpt>
      <trkpt lat="42.18088" lon="-1.53036">
        <ele>321.5</ele>
        <time>2014-11-29T08:21:17Z</time>
      </trkpt>
      <trkpt lat="42.18092" lon="-1.53008">
        <ele>320.4</ele>
        <time>2014-11-29T08:21:17Z</time>
      </trkpt>
      <trkpt lat="42.18095" lon="-1.52982">
        <ele>318.8</ele>
        <time>2014-11-29T08:21:17Z</time>
      </trkpt>
      <trkpt lat="42.18094" lon="-1.52958">
        <ele>317.2</ele>
        <time>2014-11-29T08:21:17Z</time>
      </trkpt>
      <trkpt lat="42.18081" lon="-1.52882">
        <ele>313.1</ele>
        <time>2014-11-29T08:21:17Z</time>
      </trkpt>
      <trkpt lat="42.18066" lon="-1.52795">
        <ele>310.3</ele>
        <time>2014-11-29T08:21:17Z</time>
      </trkpt>
      <trkpt lat="42.18056" lon="-1.52746">
        <ele>309.4</ele>
        <time>2014-11-29T08:21:17Z</time>
      </trkpt>
      <trkpt lat="42.18044" lon="-1.52712">
        <ele>308.3</ele>
        <time>2014-11-29T08:21:17Z</time>
      </trkpt>
      <trkpt lat="42.17998" lon="-1.52588">
        <ele>303.5</ele>
        <time>2014-11-29T08:21:17Z</time>
      </trkpt>
      <trkpt lat="42.17955" lon="-1.52468">
        <ele>303.7</ele>
        <time>2014-11-29T08:21:17Z</time>
      </trkpt>
      <trkpt lat="42.1794" lon="-1.52427">
        <ele>302.4</ele>
        <time>2014-11-29T08:21:17Z</time>
      </trkpt>
      <trkpt lat="42.17934" lon="-1.52409">
        <ele>301.9</ele>
        <time>2014-11-29T08:21:17Z</time>
      </trkpt>
      <trkpt lat="42.17928" lon="-1.52382">
        <ele>301.3</ele>
        <time>2014-11-29T08:21:17Z</time>
      </trkpt>
      <trkpt lat="42.17919" lon="-1.52336">
        <ele>300.1</ele>
        <time>2014-11-29T08:21:17Z</time>
      </trkpt>
      <trkpt lat="42.17914" lon="-1.52314">
        <ele>299.4</ele>
        <time>2014-11-29T08:21:17Z</time>
      </trkpt>
      <trkpt lat="42.17896" lon="-1.52279">
        <ele>298.8</ele>
        <time>2014-11-29T08:21:17Z</time>
      </trkpt>
      <trkpt lat="42.17896" lon="-1.52279">
        <ele>298.8</ele>
        <time>2014-11-29T08:33:58Z</time>
      </trkpt>
      <trkpt lat="42.17797" lon="-1.52095">
        <ele>298.6</ele>
        <time>2014-11-29T08:33:58Z</time>
      </trkpt>
      <trkpt lat="42.17755" lon="-1.52017">
        <ele>297.3</ele>
        <time>2014-11-29T08:33:58Z</time>
      </trkpt>
      <trkpt lat="42.1775" lon="-1.52005">
        <ele>297.1</ele>
        <time>2014-11-29T08:33:58Z</time>
      </trkpt>
      <trkpt lat="42.17656" lon="-1.51783">
        <ele>293</ele>
        <time>2014-11-29T08:33:58Z</time>
      </trkpt>
      <trkpt lat="42.17646" lon="-1.51756">
        <ele>292.8</ele>
        <time>2014-11-29T08:33:58Z</time>
      </trkpt>
      <trkpt lat="42.17639" lon="-1.51728">
        <ele>292.9</ele>
        <time>2014-11-29T08:33:58Z</time>
      </trkpt>
      <trkpt lat="42.17637" lon="-1.51705">
        <ele>293</ele>
        <time>2014-11-29T08:33:58Z</time>
      </trkpt>
      <trkpt lat="42.17643" lon="-1.51674">
        <ele>293.4</ele>
        <time>2014-11-29T08:33:58Z</time>
      </trkpt>
      <trkpt lat="42.17675" lon="-1.51516">
        <ele>292.4</ele>
        <time>2014-11-29T08:33:58Z</time>
      </trkpt>
      <trkpt lat="42.17694" lon="-1.51419">
        <ele>291.4</ele>
        <time>2014-11-29T08:33:58Z</time>
      </trkpt>
      <trkpt lat="42.17698" lon="-1.5139">
        <ele>290.8</ele>
        <time>2014-11-29T08:33:58Z</time>
      </trkpt>
      <trkpt lat="42.17712" lon="-1.51206">
        <ele>288.7</ele>
        <time>2014-11-29T08:33:58Z</time>
      </trkpt>
      <trkpt lat="42.17714" lon="-1.5119">
        <ele>288.4</ele>
        <time>2014-11-29T08:33:58Z</time>
      </trkpt>
      <trkpt lat="42.17742" lon="-1.51064">
        <ele>288.1</ele>
        <time>2014-11-29T08:33:58Z</time>
      </trkpt>
      <trkpt lat="42.17772" lon="-1.50944">
        <ele>286.9</ele>
        <time>2014-11-29T08:33:58Z</time>
      </trkpt>
      <trkpt lat="42.17804" lon="-1.50806">
        <ele>287</ele>
        <time>2014-11-29T08:33:58Z</time>
      </trkpt>
      <trkpt lat="42.17812" lon="-1.50787">
        <ele>287.4</ele>
        <time>2014-11-29T08:33:58Z</time>
      </trkpt>
      <trkpt lat="42.17886" lon="-1.50641">
        <ele>288</ele>
        <time>2014-11-29T08:33:58Z</time>
      </trkpt>
      <trkpt lat="42.17903" lon="-1.50605">
        <ele>288.1</ele>
        <time>2014-11-29T08:33:58Z</time>
      </trkpt>
      <trkpt lat="42.1798" lon="-1.50522">
        <ele>287.2</ele>
        <time>2014-11-29T08:33:58Z</time>
      </trkpt>
      <trkpt lat="42.18059" lon="-1.50433">
        <ele>290.2</ele>
        <time>2014-11-29T08:33:58Z</time>
      </trkpt>
      <trkpt lat="42.18076" lon="-1.50413">
        <ele>291</ele>
        <time>2014-11-29T08:33:58Z</time>
      </trkpt>
      <trkpt lat="42.18088" lon="-1.50395">
        <ele>291.5</ele>
        <time>2014-11-29T08:33:58Z</time>
      </trkpt>
      <trkpt lat="42.18092" lon="-1.50381">
        <ele>291.8</ele>
        <time>2014-11-29T08:33:58Z</time>
      </trkpt>
      <trkpt lat="42.18103" lon="-1.50326">
        <ele>292.3</ele>
        <time>2014-11-29T08:33:58Z</time>
      </trkpt>
      <trkpt lat="42.18121" lon="-1.50206">
        <ele>289.9</ele>
        <time>2014-11-29T08:33:58Z</time>
      </trkpt>
      <trkpt lat="42.18139" lon="-1.50088">
        <ele>290.6</ele>
        <time>2014-11-29T08:33:58Z</time>
      </trkpt>
      <trkpt lat="42.18166" lon="-1.49902">
        <ele>291</ele>
        <time>2014-11-29T08:33:58Z</time>
      </trkpt>
      <trkpt lat="42.18185" lon="-1.49777">
        <ele>291.5</ele>
        <time>2014-11-29T08:33:58Z</time>
      </trkpt>
      <trkpt lat="42.18194" lon="-1.49719">
        <ele>291.8</ele>
        <time>2014-11-29T08:33:58Z</time>
      </trkpt>
      <trkpt lat="42.18209" lon="-1.49659">
        <ele>291.4</ele>
        <time>2014-11-29T08:33:58Z</time>
      </trkpt>
      <trkpt lat="42.18212" lon="-1.49644">
        <ele>291.2</ele>
        <time>2014-11-29T08:33:58Z</time>
      </trkpt>
      <trkpt lat="42.18215" lon="-1.49628">
        <ele>291</ele>
        <time>2014-11-29T08:33:58Z</time>
      </trkpt>
      <trkpt lat="42.18217" lon="-1.49526">
        <ele>291.4</ele>
        <time>2014-11-29T08:33:58Z</time>
      </trkpt>
      <trkpt lat="42.18218" lon="-1.49477">
        <ele>291.7</ele>
        <time>2014-11-29T08:33:58Z</time>
      </trkpt>
      <trkpt lat="42.18219" lon="-1.49465">
        <ele>291.6</ele>
        <time>2014-11-29T08:33:58Z</time>
      </trkpt>
      <trkpt lat="42.18224" lon="-1.49445">
        <ele>291.4</ele>
        <time>2014-11-29T08:33:58Z</time>
      </trkpt>
      <trkpt lat="42.18248" lon="-1.49365">
        <ele>290.4</ele>
        <time>2014-11-29T08:33:58Z</time>
      </trkpt>
      <trkpt lat="42.18276" lon="-1.4927">
        <ele>290.4</ele>
        <time>2014-11-29T08:33:58Z</time>
      </trkpt>
      <trkpt lat="42.18308" lon="-1.49161">
        <ele>289.3</ele>
        <time>2014-11-29T08:33:58Z</time>
      </trkpt>
      <trkpt lat="42.18326" lon="-1.49105">
        <ele>289.6</ele>
        <time>2014-11-29T08:33:58Z</time>
      </trkpt>
      <trkpt lat="42.18332" lon="-1.49092">
        <ele>289.9</ele>
        <time>2014-11-29T08:33:58Z</time>
      </trkpt>
      <trkpt lat="42.18342" lon="-1.4908">
        <ele>290.1</ele>
        <time>2014-11-29T08:33:58Z</time>
      </trkpt>
      <trkpt lat="42.18379" lon="-1.49048">
        <ele>290.5</ele>
        <time>2014-11-29T08:33:58Z</time>
      </trkpt>
      <trkpt lat="42.18432" lon="-1.49002">
        <ele>290.8</ele>
        <time>2014-11-29T08:33:58Z</time>
      </trkpt>
      <trkpt lat="42.18464" lon="-1.48974">
        <ele>290.3</ele>
        <time>2014-11-29T08:33:58Z</time>
      </trkpt>
      <trkpt lat="42.18472" lon="-1.48964">
        <ele>290.2</ele>
        <time>2014-11-29T08:33:58Z</time>
      </trkpt>
      <trkpt lat="42.18487" lon="-1.48942">
        <ele>290</ele>
        <time>2014-11-29T08:33:58Z</time>
      </trkpt>
      <trkpt lat="42.18533" lon="-1.48869">
        <ele>292.3</ele>
        <time>2014-11-29T08:33:58Z</time>
      </trkpt>
      <trkpt lat="42.1859" lon="-1.48779">
        <ele>294.4</ele>
        <time>2014-11-29T08:33:58Z</time>
      </trkpt>
      <trkpt lat="42.18647" lon="-1.48688">
        <ele>293.9</ele>
        <time>2014-11-29T08:33:58Z</time>
      </trkpt>
      <trkpt lat="42.18685" lon="-1.48627">
        <ele>295.8</ele>
        <time>2014-11-29T08:33:58Z</time>
      </trkpt>
      <trkpt lat="42.18693" lon="-1.48609">
        <ele>296.3</ele>
        <time>2014-11-29T08:33:58Z</time>
      </trkpt>
      <trkpt lat="42.18697" lon="-1.48593">
        <ele>296.6</ele>
        <time>2014-11-29T08:33:58Z</time>
      </trkpt>
      <trkpt lat="42.18698" lon="-1.48581">
        <ele>296.8</ele>
        <time>2014-11-29T08:33:58Z</time>
      </trkpt>
      <trkpt lat="42.18698" lon="-1.48567">
        <ele>297.1</ele>
        <time>2014-11-29T08:33:58Z</time>
      </trkpt>
      <trkpt lat="42.18681" lon="-1.48502">
        <ele>298.3</ele>
        <time>2014-11-29T08:33:58Z</time>
      </trkpt>
      <trkpt lat="42.18665" lon="-1.4844">
        <ele>299.4</ele>
        <time>2014-11-29T08:33:58Z</time>
      </trkpt>
      <trkpt lat="42.18664" lon="-1.48441">
        <ele>299.4</ele>
        <time>2014-11-29T14:48:06Z</time>
      </trkpt>
      <trkpt lat="42.18691" lon="-1.48428">
        <ele>300</ele>
        <time>2014-11-29T14:48:06Z</time>
      </trkpt>
      <trkpt lat="42.18708" lon="-1.48424">
        <ele>300.4</ele>
        <time>2014-11-29T14:48:06Z</time>
      </trkpt>
      <trkpt lat="42.18723" lon="-1.48424">
        <ele>300.6</ele>
        <time>2014-11-29T14:48:06Z</time>
      </trkpt>
      <trkpt lat="42.18733" lon="-1.48431">
        <ele>300.6</ele>
        <time>2014-11-29T14:48:06Z</time>
      </trkpt>
      <trkpt lat="42.18753" lon="-1.48446">
        <ele>300.9</ele>
        <time>2014-11-29T14:48:06Z</time>
      </trkpt>
      <trkpt lat="42.18775" lon="-1.48464">
        <ele>302.3</ele>
        <time>2014-11-29T14:48:06Z</time>
      </trkpt>
      <trkpt lat="42.18798" lon="-1.48483">
        <ele>303.4</ele>
        <time>2014-11-29T14:48:06Z</time>
      </trkpt>
      <trkpt lat="42.18823" lon="-1.48504">
        <ele>304.2</ele>
        <time>2014-11-29T14:48:06Z</time>
      </trkpt>
      <trkpt lat="42.18852" lon="-1.48529">
        <ele>303.9</ele>
        <time>2014-11-29T14:48:06Z</time>
      </trkpt>
      <trkpt lat="42.18878" lon="-1.48552">
        <ele>303.4</ele>
        <time>2014-11-29T14:48:06Z</time>
      </trkpt>
      <trkpt lat="42.18903" lon="-1.48572">
        <ele>303.1</ele>
        <time>2014-11-29T14:48:06Z</time>
      </trkpt>
      <trkpt lat="42.1893" lon="-1.48596">
        <ele>302.7</ele>
        <time>2014-11-29T14:48:06Z</time>
      </trkpt>
      <trkpt lat="42.18956" lon="-1.48617">
        <ele>302.6</ele>
        <time>2014-11-29T14:48:06Z</time>
      </trkpt>
      <trkpt lat="42.18973" lon="-1.48631">
        <ele>302.6</ele>
        <time>2014-11-29T14:48:06Z</time>
      </trkpt>
      <trkpt lat="42.19002" lon="-1.48656">
        <ele>303.1</ele>
        <time>2014-11-29T14:48:06Z</time>
      </trkpt>
      <trkpt lat="42.19032" lon="-1.48682">
        <ele>305.7</ele>
        <time>2014-11-29T14:48:06Z</time>
      </trkpt>
      <trkpt lat="42.19062" lon="-1.48708">
        <ele>308.5</ele>
        <time>2014-11-29T14:48:06Z</time>
      </trkpt>
      <trkpt lat="42.19102" lon="-1.48743">
        <ele>313.5</ele>
        <time>2014-11-29T14:48:06Z</time>
      </trkpt>
      <trkpt lat="42.19107" lon="-1.48747">
        <ele>314.4</ele>
        <time>2014-11-29T14:48:06Z</time>
      </trkpt>
      <trkpt lat="42.19135" lon="-1.4877">
        <ele>316.3</ele>
        <time>2014-11-29T14:48:06Z</time>
      </trkpt>
      <trkpt lat="42.19154" lon="-1.48786">
        <ele>316.4</ele>
        <time>2014-11-29T14:48:06Z</time>
      </trkpt>
      <trkpt lat="42.1917" lon="-1.48799">
        <ele>315.8</ele>
        <time>2014-11-29T14:48:06Z</time>
      </trkpt>
      <trkpt lat="42.19192" lon="-1.48817">
        <ele>313.1</ele>
        <time>2014-11-29T14:48:06Z</time>
      </trkpt>
      <trkpt lat="42.19215" lon="-1.48837">
        <ele>310.7</ele>
        <time>2014-11-29T14:48:06Z</time>
      </trkpt>
      <trkpt lat="42.19239" lon="-1.48856">
        <ele>309.3</ele>
        <time>2014-11-29T14:48:06Z</time>
      </trkpt>
      <trkpt lat="42.19256" lon="-1.48871">
        <ele>308</ele>
        <time>2014-11-29T14:48:06Z</time>
      </trkpt>
      <trkpt lat="42.1927" lon="-1.48885">
        <ele>306.5</ele>
        <time>2014-11-29T14:48:06Z</time>
      </trkpt>
      <trkpt lat="42.19295" lon="-1.48908">
        <ele>304.3</ele>
        <time>2014-11-29T14:48:06Z</time>
      </trkpt>
      <trkpt lat="42.19309" lon="-1.48922">
        <ele>303.5</ele>
        <time>2014-11-29T14:48:06Z</time>
      </trkpt>
      <trkpt lat="42.19337" lon="-1.48953">
        <ele>302.6</ele>
        <time>2014-11-29T14:48:06Z</time>
      </trkpt>
      <trkpt lat="42.19358" lon="-1.48973">
        <ele>302.5</ele>
        <time>2014-11-29T14:48:06Z</time>
      </trkpt>
      <trkpt lat="42.19381" lon="-1.48997">
        <ele>302.6</ele>
        <time>2014-11-29T14:48:06Z</time>
      </trkpt>
      <trkpt lat="42.19402" lon="-1.49016">
        <ele>302.5</ele>
        <time>2014-11-29T14:48:06Z</time>
      </trkpt>
      <trkpt lat="42.19429" lon="-1.49043">
        <ele>301.8</ele>
        <time>2014-11-29T14:48:06Z</time>
      </trkpt>
      <trkpt lat="42.19449" lon="-1.4906">
        <ele>301.2</ele>
        <time>2014-11-29T14:48:06Z</time>
      </trkpt>
      <trkpt lat="42.19465" lon="-1.49078">
        <ele>301</ele>
        <time>2014-11-29T14:48:06Z</time>
      </trkpt>
      <trkpt lat="42.19486" lon="-1.49098">
        <ele>300.9</ele>
        <time>2014-11-29T14:48:06Z</time>
      </trkpt>
      <trkpt lat="42.19502" lon="-1.49115">
        <ele>300.9</ele>
        <time>2014-11-29T14:48:06Z</time>
      </trkpt>
      <trkpt lat="42.19523" lon="-1.49136">
        <ele>300.1</ele>
        <time>2014-11-29T14:48:06Z</time>
      </trkpt>
      <trkpt lat="42.19546" lon="-1.49159">
        <ele>298.9</ele>
        <time>2014-11-29T14:48:06Z</time>
      </trkpt>
      <trkpt lat="42.19565" lon="-1.49178">
        <ele>298</ele>
        <time>2014-11-29T14:48:06Z</time>
      </trkpt>
      <trkpt lat="42.19607" lon="-1.4922">
        <ele>298.5</ele>
        <time>2014-11-29T14:48:06Z</time>
      </trkpt>
      <trkpt lat="42.19632" lon="-1.49245">
        <ele>298.9</ele>
        <time>2014-11-29T14:48:06Z</time>
      </trkpt>
      <trkpt lat="42.19648" lon="-1.49261">
        <ele>298.8</ele>
        <time>2014-11-29T14:48:06Z</time>
      </trkpt>
      <trkpt lat="42.19666" lon="-1.49279">
        <ele>298.6</ele>
        <time>2014-11-29T14:48:06Z</time>
      </trkpt>
      <trkpt lat="42.1968" lon="-1.49295">
        <ele>298.2</ele>
        <time>2014-11-29T14:48:06Z</time>
      </trkpt>
      <trkpt lat="42.19705" lon="-1.49319">
        <ele>297.6</ele>
        <time>2014-11-29T14:48:06Z</time>
      </trkpt>
      <trkpt lat="42.19721" lon="-1.49335">
        <ele>297.3</ele>
        <time>2014-11-29T14:48:06Z</time>
      </trkpt>
      <trkpt lat="42.19746" lon="-1.49362">
        <ele>296.3</ele>
        <time>2014-11-29T14:48:06Z</time>
      </trkpt>
      <trkpt lat="42.19773" lon="-1.49389">
        <ele>295.8</ele>
        <time>2014-11-29T14:48:06Z</time>
      </trkpt>
      <trkpt lat="42.19787" lon="-1.49401">
        <ele>295.7</ele>
        <time>2014-11-29T14:48:06Z</time>
      </trkpt>
      <trkpt lat="42.19804" lon="-1.4942">
        <ele>295.7</ele>
        <time>2014-11-29T14:48:06Z</time>
      </trkpt>
      <trkpt lat="42.1983" lon="-1.49446">
        <ele>296</ele>
        <time>2014-11-29T14:48:06Z</time>
      </trkpt>
      <trkpt lat="42.19853" lon="-1.49468">
        <ele>296.7</ele>
        <time>2014-11-29T14:48:06Z</time>
      </trkpt>
      <trkpt lat="42.19883" lon="-1.49498">
        <ele>297.8</ele>
        <time>2014-11-29T14:48:06Z</time>
      </trkpt>
      <trkpt lat="42.19902" lon="-1.49519">
        <ele>298.4</ele>
        <time>2014-11-29T14:48:06Z</time>
      </trkpt>
      <trkpt lat="42.19912" lon="-1.49528">
        <ele>298.5</ele>
        <time>2014-11-29T14:48:06Z</time>
      </trkpt>
      <trkpt lat="42.19925" lon="-1.49542">
        <ele>298.8</ele>
        <time>2014-11-29T14:48:06Z</time>
      </trkpt>
      <trkpt lat="42.1994" lon="-1.49558">
        <ele>299.1</ele>
        <time>2014-11-29T14:48:06Z</time>
      </trkpt>
      <trkpt lat="42.19958" lon="-1.49576">
        <ele>299.6</ele>
        <time>2014-11-29T14:48:06Z</time>
      </trkpt>
      <trkpt lat="42.19979" lon="-1.49596">
        <ele>300.3</ele>
        <time>2014-11-29T14:48:06Z</time>
      </trkpt>
      <trkpt lat="42.19998" lon="-1.49617">
        <ele>300.9</ele>
        <time>2014-11-29T14:48:06Z</time>
      </trkpt>
      <trkpt lat="42.20025" lon="-1.49642">
        <ele>302.1</ele>
        <time>2014-11-29T14:48:06Z</time>
      </trkpt>
      <trkpt lat="42.20038" lon="-1.49656">
        <ele>302.8</ele>
        <time>2014-11-29T14:48:06Z</time>
      </trkpt>
      <trkpt lat="42.20047" lon="-1.49665">
        <ele>303.2</ele>
        <time>2014-11-29T14:48:06Z</time>
      </trkpt>
      <trkpt lat="42.20057" lon="-1.49676">
        <ele>303.6</ele>
        <time>2014-11-29T14:48:06Z</time>
      </trkpt>
      <trkpt lat="42.2007" lon="-1.49687">
        <ele>303.9</ele>
        <time>2014-11-29T14:48:06Z</time>
      </trkpt>
      <trkpt lat="42.20088" lon="-1.49706">
        <ele>304.1</ele>
        <time>2014-11-29T14:48:06Z</time>
      </trkpt>
      <trkpt lat="42.20104" lon="-1.49722">
        <ele>304.1</ele>
        <time>2014-11-29T14:48:06Z</time>
      </trkpt>
      <trkpt lat="42.20119" lon="-1.49737">
        <ele>304.1</ele>
        <time>2014-11-29T14:48:06Z</time>
      </trkpt>
      <trkpt lat="42.20146" lon="-1.49767">
        <ele>305.1</ele>
        <time>2014-11-29T14:48:06Z</time>
      </trkpt>
      <trkpt lat="42.20166" lon="-1.49785">
        <ele>306.3</ele>
        <time>2014-11-29T14:48:06Z</time>
      </trkpt>
      <trkpt lat="42.20184" lon="-1.49805">
        <ele>307.7</ele>
        <time>2014-11-29T14:48:06Z</time>
      </trkpt>
      <trkpt lat="42.20207" lon="-1.49827">
        <ele>309.7</ele>
        <time>2014-11-29T14:48:06Z</time>
      </trkpt>
      <trkpt lat="42.20238" lon="-1.49858">
        <ele>311.4</ele>
        <time>2014-11-29T14:48:06Z</time>
      </trkpt>
      <trkpt lat="42.20254" lon="-1.49875">
        <ele>312.1</ele>
        <time>2014-11-29T14:48:06Z</time>
      </trkpt>
      <trkpt lat="42.20287" lon="-1.49907">
        <ele>313.3</ele>
        <time>2014-11-29T14:48:06Z</time>
      </trkpt>
      <trkpt lat="42.20312" lon="-1.49933">
        <ele>314.1</ele>
        <time>2014-11-29T14:48:06Z</time>
      </trkpt>
      <trkpt lat="42.2034" lon="-1.4996">
        <ele>315.6</ele>
        <time>2014-11-29T14:48:06Z</time>
      </trkpt>
      <trkpt lat="42.20377" lon="-1.49996">
        <ele>319.7</ele>
        <time>2014-11-29T14:48:06Z</time>
      </trkpt>
      <trkpt lat="42.20403" lon="-1.50021">
        <ele>320.7</ele>
        <time>2014-11-29T14:48:06Z</time>
      </trkpt>
      <trkpt lat="42.20417" lon="-1.50036">
        <ele>320.5</ele>
        <time>2014-11-29T14:48:06Z</time>
      </trkpt>
      <trkpt lat="42.20434" lon="-1.50052">
        <ele>319.6</ele>
        <time>2014-11-29T14:48:06Z</time>
      </trkpt>
      <trkpt lat="42.20464" lon="-1.50082">
        <ele>316.2</ele>
        <time>2014-11-29T14:48:06Z</time>
      </trkpt>
      <trkpt lat="42.2048" lon="-1.50098">
        <ele>314.9</ele>
        <time>2014-11-29T14:48:06Z</time>
      </trkpt>
      <trkpt lat="42.20499" lon="-1.50117">
        <ele>313.2</ele>
        <time>2014-11-29T14:48:06Z</time>
      </trkpt>
      <trkpt lat="42.20517" lon="-1.50138">
        <ele>311.1</ele>
        <time>2014-11-29T14:48:06Z</time>
      </trkpt>
      <trkpt lat="42.20535" lon="-1.5017">
        <ele>307.9</ele>
        <time>2014-11-29T14:48:06Z</time>
      </trkpt>
      <trkpt lat="42.2055" lon="-1.502">
        <ele>305.9</ele>
        <time>2014-11-29T14:48:06Z</time>
      </trkpt>
      <trkpt lat="42.20568" lon="-1.50244">
        <ele>302.9</ele>
        <time>2014-11-29T14:48:06Z</time>
      </trkpt>
      <trkpt lat="42.20588" lon="-1.50282">
        <ele>301.2</ele>
        <time>2014-11-29T14:48:06Z</time>
      </trkpt>
      <trkpt lat="42.20619" lon="-1.5035">
        <ele>298.8</ele>
        <time>2014-11-29T14:48:06Z</time>
      </trkpt>
      <trkpt lat="42.20642" lon="-1.50396">
        <ele>297.9</ele>
        <time>2014-11-29T14:48:06Z</time>
      </trkpt>
      <trkpt lat="42.2067" lon="-1.5046">
        <ele>298.1</ele>
        <time>2014-11-29T14:48:06Z</time>
      </trkpt>
      <trkpt lat="42.20694" lon="-1.5051">
        <ele>298.7</ele>
        <time>2014-11-29T14:48:06Z</time>
      </trkpt>
      <trkpt lat="42.20709" lon="-1.50543">
        <ele>298.5</ele>
        <time>2014-11-29T14:48:06Z</time>
      </trkpt>
      <trkpt lat="42.20719" lon="-1.50565">
        <ele>298.3</ele>
        <time>2014-11-29T14:48:06Z</time>
      </trkpt>
      <trkpt lat="42.20724" lon="-1.50586">
        <ele>298.1</ele>
        <time>2014-11-29T14:48:06Z</time>
      </trkpt>
      <trkpt lat="42.2073" lon="-1.50611">
        <ele>298.5</ele>
        <time>2014-11-29T14:48:06Z</time>
      </trkpt>
      <trkpt lat="42.20732" lon="-1.50657">
        <ele>299.1</ele>
        <time>2014-11-29T14:48:06Z</time>
      </trkpt>
      <trkpt lat="42.20731" lon="-1.50713">
        <ele>301.4</ele>
        <time>2014-11-29T14:48:06Z</time>
      </trkpt>
      <trkpt lat="42.20726" lon="-1.50749">
        <ele>302.6</ele>
        <time>2014-11-29T14:48:06Z</time>
      </trkpt>
      <trkpt lat="42.20718" lon="-1.50785">
        <ele>307</ele>
        <time>2014-11-29T14:48:06Z</time>
      </trkpt>
      <trkpt lat="42.20706" lon="-1.50816">
        <ele>309.4</ele>
        <time>2014-11-29T14:48:06Z</time>
      </trkpt>
      <trkpt lat="42.20694" lon="-1.5085">
        <ele>310.3</ele>
        <time>2014-11-29T14:48:06Z</time>
      </trkpt>
      <trkpt lat="42.20691" lon="-1.50874">
        <ele>311.3</ele>
        <time>2014-11-29T14:48:06Z</time>
      </trkpt>
      <trkpt lat="42.20694" lon="-1.50906">
        <ele>314.7</ele>
        <time>2014-11-29T14:48:06Z</time>
      </trkpt>
      <trkpt lat="42.20703" lon="-1.50929">
        <ele>317</ele>
        <time>2014-11-29T14:48:06Z</time>
      </trkpt>
      <trkpt lat="42.20717" lon="-1.50957">
        <ele>317.5</ele>
        <time>2014-11-29T14:48:06Z</time>
      </trkpt>
      <trkpt lat="42.20741" lon="-1.51006">
        <ele>315.2</ele>
        <time>2014-11-29T14:48:06Z</time>
      </trkpt>
      <trkpt lat="42.20757" lon="-1.5104">
        <ele>311.3</ele>
        <time>2014-11-29T14:48:06Z</time>
      </trkpt>
      <trkpt lat="42.20772" lon="-1.51072">
        <ele>307.1</ele>
        <time>2014-11-29T14:48:06Z</time>
      </trkpt>
      <trkpt lat="42.20795" lon="-1.51124">
        <ele>305.9</ele>
        <time>2014-11-29T14:48:06Z</time>
      </trkpt>
      <trkpt lat="42.2081" lon="-1.51165">
        <ele>306.7</ele>
        <time>2014-11-29T14:48:06Z</time>
      </trkpt>
      <trkpt lat="42.20842" lon="-1.51244">
        <ele>306.9</ele>
        <time>2014-11-29T14:48:06Z</time>
      </trkpt>
      <trkpt lat="42.20853" lon="-1.51272">
        <ele>305.3</ele>
        <time>2014-11-29T14:48:06Z</time>
      </trkpt>
      <trkpt lat="42.20865" lon="-1.51299">
        <ele>303.4</ele>
        <time>2014-11-29T14:48:06Z</time>
      </trkpt>
      <trkpt lat="42.20889" lon="-1.51356">
        <ele>298.6</ele>
        <time>2014-11-29T14:48:06Z</time>
      </trkpt>
      <trkpt lat="42.20911" lon="-1.51408">
        <ele>295.5</ele>
        <time>2014-11-29T14:48:06Z</time>
      </trkpt>
      <trkpt lat="42.20939" lon="-1.51475">
        <ele>291.1</ele>
        <time>2014-11-29T14:48:06Z</time>
      </trkpt>
      <trkpt lat="42.20949" lon="-1.51557">
        <ele>287.8</ele>
        <time>2014-11-29T14:48:06Z</time>
      </trkpt>
      <trkpt lat="42.20953" lon="-1.51558">
        <ele>287.5</ele>
        <time>2014-11-29T08:26:26Z</time>
      </trkpt>
      <trkpt lat="42.2092" lon="-1.51583">
        <ele>288.8</ele>
        <time>2014-11-29T08:26:26Z</time>
      </trkpt>
      <trkpt lat="42.20905" lon="-1.5159">
        <ele>288.8</ele>
        <time>2014-11-29T08:26:26Z</time>
      </trkpt>
      <trkpt lat="42.20889" lon="-1.51596">
        <ele>288.7</ele>
        <time>2014-11-29T08:26:26Z</time>
      </trkpt>
      <trkpt lat="42.20851" lon="-1.51599">
        <ele>288.9</ele>
        <time>2014-11-29T08:26:26Z</time>
      </trkpt>
      <trkpt lat="42.20758" lon="-1.51606">
        <ele>288.1</ele>
        <time>2014-11-29T08:26:26Z</time>
      </trkpt>
      <trkpt lat="42.20661" lon="-1.51615">
        <ele>287.8</ele>
        <time>2014-11-29T08:26:26Z</time>
      </trkpt>
      <trkpt lat="42.20618" lon="-1.51617">
        <ele>287.9</ele>
        <time>2014-11-29T08:26:26Z</time>
      </trkpt>
      <trkpt lat="42.20607" lon="-1.51616">
        <ele>287.9</ele>
        <time>2014-11-29T08:26:26Z</time>
      </trkpt>
      <trkpt lat="42.20594" lon="-1.51612">
        <ele>288</ele>
        <time>2014-11-29T08:26:26Z</time>
      </trkpt>
      <trkpt lat="42.20554" lon="-1.51595">
        <ele>287.7</ele>
        <time>2014-11-29T08:26:26Z</time>
      </trkpt>
      <trkpt lat="42.20506" lon="-1.51566">
        <ele>287.1</ele>
        <time>2014-11-29T08:26:26Z</time>
      </trkpt>
      <trkpt lat="42.20498" lon="-1.51558">
        <ele>287</ele>
        <time>2014-11-29T08:26:26Z</time>
      </trkpt>
      <trkpt lat="42.20466" lon="-1.51507">
        <ele>287.4</ele>
        <time>2014-11-29T08:26:26Z</time>
      </trkpt>
      <trkpt lat="42.20456" lon="-1.51498">
        <ele>287.5</ele>
        <time>2014-11-29T08:26:26Z</time>
      </trkpt>
      <trkpt lat="42.20441" lon="-1.51495">
        <ele>287.8</ele>
        <time>2014-11-29T08:26:26Z</time>
      </trkpt>
      <trkpt lat="42.20393" lon="-1.5151">
        <ele>287.6</ele>
        <time>2014-11-29T08:26:26Z</time>
      </trkpt>
      <trkpt lat="42.20364" lon="-1.51518">
        <ele>287.2</ele>
        <time>2014-11-29T08:26:26Z</time>
      </trkpt>
      <trkpt lat="42.20311" lon="-1.51528">
        <ele>286.8</ele>
        <time>2014-11-29T08:26:26Z</time>
      </trkpt>
      <trkpt lat="42.2029" lon="-1.51537">
        <ele>286.8</ele>
        <time>2014-11-29T08:26:26Z</time>
      </trkpt>
      <trkpt lat="42.20272" lon="-1.51549">
        <ele>286.7</ele>
        <time>2014-11-29T08:26:26Z</time>
      </trkpt>
      <trkpt lat="42.20246" lon="-1.51577">
        <ele>286.1</ele>
        <time>2014-11-29T08:26:26Z</time>
      </trkpt>
      <trkpt lat="42.20233" lon="-1.51593">
        <ele>286.1</ele>
        <time>2014-11-29T08:26:26Z</time>
      </trkpt>
      <trkpt lat="42.20209" lon="-1.51605">
        <ele>286</ele>
        <time>2014-11-29T08:26:26Z</time>
      </trkpt>
      <trkpt lat="42.20153" lon="-1.51624">
        <ele>285.4</ele>
        <time>2014-11-29T08:26:26Z</time>
      </trkpt>
      <trkpt lat="42.2013" lon="-1.51632">
        <ele>285.1</ele>
        <time>2014-11-29T08:26:26Z</time>
      </trkpt>
      <trkpt lat="42.2011" lon="-1.51643">
        <ele>284.8</ele>
        <time>2014-11-29T08:26:26Z</time>
      </trkpt>
      <trkpt lat="42.20074" lon="-1.51671">
        <ele>283.8</ele>
        <time>2014-11-29T08:26:26Z</time>
      </trkpt>
      <trkpt lat="42.20062" lon="-1.51677">
        <ele>283.5</ele>
        <time>2014-11-29T08:26:26Z</time>
      </trkpt>
      <trkpt lat="42.20036" lon="-1.51681">
        <ele>282.9</ele>
        <time>2014-11-29T08:26:26Z</time>
      </trkpt>
      <trkpt lat="42.19998" lon="-1.51686">
        <ele>282</ele>
        <time>2014-11-29T08:26:26Z</time>
      </trkpt>
      <trkpt lat="42.19978" lon="-1.5169">
        <ele>282.3</ele>
        <time>2014-11-29T08:26:26Z</time>
      </trkpt>
      <trkpt lat="42.19907" lon="-1.51719">
        <ele>283.7</ele>
        <time>2014-11-29T08:26:26Z</time>
      </trkpt>
      <trkpt lat="42.19881" lon="-1.51729">
        <ele>284</ele>
        <time>2014-11-29T08:26:26Z</time>
      </trkpt>
      <trkpt lat="42.1983" lon="-1.51744">
        <ele>284.1</ele>
        <time>2014-11-29T08:26:26Z</time>
      </trkpt>
      <trkpt lat="42.19749" lon="-1.51775">
        <ele>285</ele>
        <time>2014-11-29T08:26:26Z</time>
      </trkpt>
      <trkpt lat="42.19706" lon="-1.51791">
        <ele>284.2</ele>
        <time>2014-11-29T08:26:26Z</time>
      </trkpt>
      <trkpt lat="42.19656" lon="-1.51817">
        <ele>283.2</ele>
        <time>2014-11-29T08:26:26Z</time>
      </trkpt>
      <trkpt lat="42.19637" lon="-1.5183">
        <ele>283</ele>
        <time>2014-11-29T08:26:26Z</time>
      </trkpt>
      <trkpt lat="42.19607" lon="-1.51844">
        <ele>282.9</ele>
        <time>2014-11-29T08:26:26Z</time>
      </trkpt>
      <trkpt lat="42.19564" lon="-1.51863">
        <ele>282.8</ele>
        <time>2014-11-29T08:26:26Z</time>
      </trkpt>
      <trkpt lat="42.1955" lon="-1.51868">
        <ele>282.9</ele>
        <time>2014-11-29T08:26:26Z</time>
      </trkpt>
      <trkpt lat="42.19478" lon="-1.51912">
        <ele>283.4</ele>
        <time>2014-11-29T08:26:26Z</time>
      </trkpt>
      <trkpt lat="42.19434" lon="-1.51937">
        <ele>282.8</ele>
        <time>2014-11-29T08:26:26Z</time>
      </trkpt>
      <trkpt lat="42.19376" lon="-1.51961">
        <ele>282.5</ele>
        <time>2014-11-29T08:26:26Z</time>
      </trkpt>
      <trkpt lat="42.19339" lon="-1.51975">
        <ele>282.1</ele>
        <time>2014-11-29T08:26:26Z</time>
      </trkpt>
      <trkpt lat="42.19271" lon="-1.52007">
        <ele>281.4</ele>
        <time>2014-11-29T08:26:26Z</time>
      </trkpt>
      <trkpt lat="42.19242" lon="-1.5202">
        <ele>281.5</ele>
        <time>2014-11-29T08:26:26Z</time>
      </trkpt>
      <trkpt lat="42.19224" lon="-1.52026">
        <ele>281.7</ele>
        <time>2014-11-29T08:26:26Z</time>
      </trkpt>
      <trkpt lat="42.1921" lon="-1.52027">
        <ele>281.8</ele>
        <time>2014-11-29T08:26:26Z</time>
      </trkpt>
      <trkpt lat="42.19104" lon="-1.52032">
        <ele>281.2</ele>
        <time>2014-11-29T08:26:26Z</time>
      </trkpt>
      <trkpt lat="42.1905" lon="-1.52032">
        <ele>280.8</ele>
        <time>2014-11-29T08:26:26Z</time>
      </trkpt>
      <trkpt lat="42.18941" lon="-1.52029">
        <ele>280.6</ele>
        <time>2014-11-29T08:26:26Z</time>
      </trkpt>
      <trkpt lat="42.18929" lon="-1.52033">
        <ele>280.6</ele>
        <time>2014-11-29T08:26:26Z</time>
      </trkpt>
      <trkpt lat="42.18881" lon="-1.52067">
        <ele>280</ele>
        <time>2014-11-29T08:26:26Z</time>
      </trkpt>
      <trkpt lat="42.188" lon="-1.52122">
        <ele>280.3</ele>
        <time>2014-11-29T08:26:26Z</time>
      </trkpt>
      <trkpt lat="42.18783" lon="-1.52131">
        <ele>280.8</ele>
        <time>2014-11-29T08:26:26Z</time>
      </trkpt>
      <trkpt lat="42.18772" lon="-1.52134">
        <ele>281.2</ele>
        <time>2014-11-29T08:26:26Z</time>
      </trkpt>
      <trkpt lat="42.18659" lon="-1.52141">
        <ele>280.7</ele>
        <time>2014-11-29T08:26:26Z</time>
      </trkpt>
      <trkpt lat="42.18646" lon="-1.52146">
        <ele>280.8</ele>
        <time>2014-11-29T08:26:26Z</time>
      </trkpt>
      <trkpt lat="42.18634" lon="-1.52156">
        <ele>280.9</ele>
        <time>2014-11-29T08:26:26Z</time>
      </trkpt>
      <trkpt lat="42.1861" lon="-1.5218">
        <ele>280.8</ele>
        <time>2014-11-29T08:26:26Z</time>
      </trkpt>
      <trkpt lat="42.18597" lon="-1.52192">
        <ele>280.5</ele>
        <time>2014-11-29T08:26:26Z</time>
      </trkpt>
      <trkpt lat="42.18573" lon="-1.52199">
        <ele>280.3</ele>
        <time>2014-11-29T08:26:26Z</time>
      </trkpt>
      <trkpt lat="42.18556" lon="-1.52202">
        <ele>280.3</ele>
        <time>2014-11-29T08:26:26Z</time>
      </trkpt>
      <trkpt lat="42.18539" lon="-1.52199">
        <ele>280.4</ele>
        <time>2014-11-29T08:26:26Z</time>
      </trkpt>
      <trkpt lat="42.18518" lon="-1.52193">
        <ele>280.6</ele>
        <time>2014-11-29T08:26:26Z</time>
      </trkpt>
      <trkpt lat="42.18468" lon="-1.52178">
        <ele>281.5</ele>
        <time>2014-11-29T08:26:26Z</time>
      </trkpt>
      <trkpt lat="42.18451" lon="-1.52172">
        <ele>281.7</ele>
        <time>2014-11-29T08:26:26Z</time>
      </trkpt>
      <trkpt lat="42.18411" lon="-1.5217">
        <ele>282.3</ele>
        <time>2014-11-29T08:26:26Z</time>
      </trkpt>
      <trkpt lat="42.18386" lon="-1.52171">
        <ele>283.3</ele>
        <time>2014-11-29T08:26:26Z</time>
      </trkpt>
      <trkpt lat="42.18368" lon="-1.52176">
        <ele>284.1</ele>
        <time>2014-11-29T08:26:26Z</time>
      </trkpt>
      <trkpt lat="42.18334" lon="-1.52192">
        <ele>285.6</ele>
        <time>2014-11-29T08:26:26Z</time>
      </trkpt>
      <trkpt lat="42.18317" lon="-1.52197">
        <ele>285.9</ele>
        <time>2014-11-29T08:26:26Z</time>
      </trkpt>
      <trkpt lat="42.18273" lon="-1.52205">
        <ele>286.6</ele>
        <time>2014-11-29T08:26:26Z</time>
      </trkpt>
      <trkpt lat="42.18255" lon="-1.52205">
        <ele>286.8</ele>
        <time>2014-11-29T08:26:26Z</time>
      </trkpt>
      <trkpt lat="42.18238" lon="-1.52198">
        <ele>286.9</ele>
        <time>2014-11-29T08:26:26Z</time>
      </trkpt>
      <trkpt lat="42.18157" lon="-1.52146">
        <ele>287.4</ele>
        <time>2014-11-29T08:26:26Z</time>
      </trkpt>
      <trkpt lat="42.18128" lon="-1.52128">
        <ele>288.6</ele>
        <time>2014-11-29T08:26:26Z</time>
      </trkpt>
      <trkpt lat="42.18087" lon="-1.52114">
        <ele>290.2</ele>
        <time>2014-11-29T08:26:26Z</time>
      </trkpt>
      <trkpt lat="42.18062" lon="-1.5211">
        <ele>290.5</ele>
        <time>2014-11-29T08:26:26Z</time>
      </trkpt>
      <trkpt lat="42.18043" lon="-1.52112">
        <ele>290.7</ele>
        <time>2014-11-29T08:26:26Z</time>
      </trkpt>
      <trkpt lat="42.18016" lon="-1.5213">
        <ele>291.5</ele>
        <time>2014-11-29T08:26:26Z</time>
      </trkpt>
      <trkpt lat="42.17968" lon="-1.52163">
        <ele>293.3</ele>
        <time>2014-11-29T08:26:26Z</time>
      </trkpt>
      <trkpt lat="42.17943" lon="-1.52188">
        <ele>294.5</ele>
        <time>2014-11-29T08:26:26Z</time>
      </trkpt>
      <trkpt lat="42.17928" lon="-1.52205">
        <ele>295.3</ele>
        <time>2014-11-29T08:26:26Z</time>
      </trkpt>
      <trkpt lat="42.17918" lon="-1.52224">
        <ele>296.1</ele>
        <time>2014-11-29T08:26:26Z</time>
      </trkpt>
      <trkpt lat="42.17896" lon="-1.52277">
        <ele>298.7</ele>
        <time>2014-11-29T08:26:26Z</time>
      </trkpt>
    </trkseg>
  </trk>
</gpx>